EW2910 Weather Reports


Display with metric or nautical units.
time (UTC)temp
F
wind
direction
speed
MPH
gust
MPH
rain 1hr
in
rain 24hr
in
rain mn
in
humidity
%
barometer
mb
20260831151559 87 0 0.0 4.0 0.00 0.00 0.00 79 1018.2
20260831150105 88 0 0.0 4.0 0.00 0.00 0.00 77 1018.0
20260831144603 88 0 0.0 0.0 0.00 0.00 0.00 78 1018.0
20260831143102 85 0 0.0 5.0 0.00 0.00 0.00 81 1017.9
20260831141606 86 0 0.0 4.0 0.00 0.00 0.00 80 1018.0
20260831134607 84 0 0.0 0.0 0.00 0.00 0.00 85 1017.8
20260831133058 84 0 0.0 2.0 0.00 0.00 0.00 87 1017.7
20260831131607 82 0 0.0 3.0 0.00 0.00 0.00 90 1017.7
20260831130111 81 0 0.0 0.0 0.00 0.00 0.00 93 1017.7
20260831124614 79 0 1.0 4.0 0.00 0.00 0.00 95 1017.5
20260831123102 79 0 0.0 3.0 0.00 0.00 0.00 96 1017.5
20260831121602 78 0 1.0 4.0 0.00 0.00 0.00 97 1017.4
20260831120106 78 0 0.0 1.0 0.00 0.00 0.00 98 1017.4
20260831114606 77 0 0.0 4.0 0.00 0.00 0.00 98 1017.1
20260831113105 76 0 0.0 1.0 0.00 0.00 0.00 98 1017.0
20260831111606 75 0 0.0 0.0 0.00 0.00 0.00 98 1016.8
20260831110104 75 0 0.0 0.0 0.00 0.00 0.00 98 1016.6
20260831104603 75 0 0.0 0.0 0.00 0.00 0.00 98 1016.3
20260831103100 75 0 0.0 0.0 0.00 0.00 0.00 98 1016.2
20260831101603 75 0 0.0 0.0 0.00 0.00 0.00 98 1016.2
20260831100122 75 0 0.0 0.0 0.00 0.00 0.00 98 1016.2
20260831094600 75 0 0.0 1.0 0.00 0.00 0.00 98 1016.0
20260831093120 75 0 0.0 0.0 0.00 0.00 0.00 98 1015.9
20260831091604 75 0 0.0 0.0 0.00 0.00 0.00 98 1016.0
20260831090131 75 0 0.0 0.0 0.00 0.00 0.00 98 1015.9
20260831084601 75 0 0.0 0.0 0.00 0.00 0.00 97 1016.0
20260831083113 75 0 0.0 0.0 0.00 0.00 0.00 97 1016.2
20260831081610 75 0 0.0 0.0 0.00 0.00 0.00 97 1016.1
20260831080131 75 0 0.0 0.0 0.00 0.00 0.00 97 1016.0
20260831074602 75 0 0.0 0.0 0.00 0.00 0.00 97 1016.2
20260831073102 75 0 0.0 0.0 0.00 0.00 0.00 97 1016.3
20260831071605 75 0 0.0 0.0 0.00 0.00 0.00 97 1016.5
20260831070104 75 0 0.0 1.0 0.00 0.00 0.00 97 1016.4
20260831064609 76 0 0.0 0.0 0.00 0.00 0.00 97 1016.5
20260831063111 75 0 0.0 0.0 0.00 0.00 0.00 97 1016.7
20260831061603 76 0 0.0 0.0 0.00 0.00 0.00 96 1016.8
20260831060105 76 0 0.0 0.0 0.00 0.00 0.00 96 1016.8
20260831054618 76 0 0.0 0.0 0.00 0.00 0.00 96 1017.1
20260831053133 76 0 0.0 0.0 0.00 0.00 0.00 96 1017.2
20260831051619 76 0 0.0 0.0 0.00 0.00 0.00 96 1017.1
20260831050105 75 0 0.0 0.0 0.00 0.00 0.00 96 1017.1
20260831044644 76 0 0.0 0.0 0.00 0.00 0.00 96 1017.3
20260831043100 76 0 0.0 0.0 0.00 0.00 0.00 95 1017.2
20260831041617 76 0 0.0 0.0 0.00 0.00 0.00 95 1017.2
20260831040123 76 0 0.0 0.0 0.00 0.00 0.00 95 1017.4
20260831034623 76 0 0.0 0.0 0.00 0.00 0.00 94 1017.5
20260831033114 77 0 0.0 0.0 0.00 0.00 0.00 94 1017.4
20260831031600 77 0 0.0 0.0 0.00 0.00 0.00 94 1017.5
20260831024600 78 0 0.0 0.0 0.00 0.00 0.00 93 1017.6
20260831023100 78 0 0.0 0.0 0.00 0.00 0.00 93 1017.5
20260831021602 78 0 0.0 0.0 0.00 0.00 0.00 93 1017.6
20260831014600 78 0 0.0 0.0 0.00 0.00 0.00 92 1017.7
20260831013102 78 0 0.0 0.0 0.00 0.00 0.00 91 1017.6
20260831011602 79 0 0.0 0.0 0.00 0.00 0.00 91 1017.5
20260831010119 79 0 0.0 0.0 0.00 0.00 0.00 92 1017.6
20260831004612 79 0 0.0 0.0 0.00 0.01 0.00 92 1017.3
20260831003109 79 0 0.0 4.0 0.00 0.01 0.00 91 1017.1
20260831001604 79 0 0.0 4.0 0.00 0.01 0.00 91 1017.0
20260831000110 80 0 0.0 4.0 0.00 0.01 0.00 89 1017.1
20260830234615 81 0 0.0 1.0 0.00 0.05 0.00 86 1016.9
20260830233101 81 0 0.0 1.0 0.00 0.05 0.00 85 1016.9
20260830231607 82 0 0.0 1.0 0.00 0.05 0.00 84 1016.8
20260830230059 83 0 0.0 0.0 0.00 0.05 0.00 82 1016.6
20260830224604 83 0 0.0 3.0 0.00 0.08 0.00 81 1016.7
20260830223103 83 0 0.0 1.0 0.00 0.08 0.00 81 1016.7
20260830221600 84 0 0.0 5.0 0.00 0.08 0.00 80 1016.7
20260830220106 84 93 0.0 6.0 0.00 0.08 0.00 78 1016.3
20260830214607 84 0 2.0 7.0 0.00 0.08 0.00 80 1016.6
20260830213107 84 0 0.0 6.0 0.00 0.08 0.00 81 1016.4
20260830211608 83 60 4.0 9.0 0.00 0.08 0.00 82 1016.3
20260830210105 82 0 3.0 8.0 0.00 0.08 0.00 83 1016.4
20260830204602 82 104 2.0 9.0 0.00 0.08 0.00 82 1016.5
20260830203101 82 77 4.0 8.0 0.00 0.08 0.00 80 1016.2
20260830201605 83 96 4.0 9.0 0.00 0.08 0.00 79 1016.5
20260830194602 84 100 6.0 12.0 0.00 0.08 0.00 78 1016.6
20260830193106 84 83 6.0 14.0 0.00 0.08 0.00 79 1016.7
20260830191603 86 23 6.0 12.0 0.00 0.08 0.00 78 1016.8
20260830184608 92 0 2.0 12.0 0.00 0.08 0.00 64 1016.7
20260830183103 92 136 1.0 10.0 0.00 0.08 0.00 63 1016.8
20260830181600 93 176 1.0 7.0 0.00 0.08 0.00 65 1016.8
20260830180108 93 0 0.0 7.0 0.00 0.08 0.00 64 1017.2
20260830174617 92 0 2.0 7.0 0.00 0.08 0.00 66 1017.2
20260830173108 90 108 2.0 8.0 0.00 0.08 0.00 68 1017.5
20260830171609 90 117 3.0 7.0 0.00 0.08 0.00 70 1017.7
20260830170110 89 0 0.0 4.0 0.00 0.08 0.00 73 1017.8
20260830164604 88 68 4.0 10.0 0.00 0.08 0.00 77 1018.0
20260830163107 90 60 2.0 8.0 0.00 0.08 0.00 72 1018.2
20260830161622 89 110 0.0 5.0 0.00 0.08 0.00 75 1018.2
20260830160104 88 153 3.0 7.0 0.00 0.08 0.00 76 1018.3
20260830154618 88 274 0.0 4.0 0.00 0.08 0.00 77 1018.3
20260830153104 87 134 0.0 6.0 0.00 0.08 0.00 80 1018.6